Location: *
(2.5500°S, 65.9667°W)
Time: 18:45:34
(UTC+00:00)

Cosmos 2123 Rocket - Visible Passes

Search period start: 25 May 2022 00:00
Search period end: 04 June 2022 00:00
Orbit: 961 x 992 km, 82.9° (Epoch: 25 May)

Date Brightness Start Highest point End Pass type
(mag) Time Alt. Az. Time Alt. Az. Time Alt. Az.
25 May 6.0 23:14:16 10° NW 23:19:35 29° W 23:24:57 10° SSW visible
26 May 6.9 23:42:45 10° WNW 23:45:14 12° W 23:47:44 10° WSW visible
27 May 6.5 09:14:33 10° SE 09:18:58 20° E 09:23:22 10° NE visible
28 May 5.2 09:38:44 10° SSE 09:44:37 46° E 09:50:27 10° NNE visible
28 May 5.8 22:45:42 10° NNW 22:51:20 35° W 22:57:01 10° SSW visible
29 May 6.8 23:13:27 10° WNW 23:17:00 16° W 23:20:33 10° SW visible
30 May 6.6 08:46:56 10° SE 08:50:43 17° E 08:54:28 10° NE visible
31 May 5.4 09:10:42 10° SSE 09:16:22 38° E 09:21:59 10° NNE visible
01 Jun 4.1 09:35:48 10° S 09:41:59 84° E 09:48:09 10° N visible
01 Jun 6.7 22:44:29 10° NW 22:48:45 19° W 22:53:03 10° SW visible
02 Jun 6.7 08:19:34 10° ESE 08:22:27 14° E 08:25:19 10° ENE visible
02 Jun 4.3 10:01:46 10° SSW 10:07:35 44° W 10:13:23 10° NNW visible
03 Jun 5.7 08:42:44 10° SSE 08:48:07 31° E 08:53:26 10° NNE visible
